contact:dominique.lefevre@mio.osupytheas.fr, maurice.libes@osupytheas.fr, didier.mallarino@osupytheas.fr
Project:EMSO http://www.emso-fr.org/EMSO-France
Depth: 2436.0 m
Title:EMSO Ligure Ouest : Data MII capteur AQUADOPP
Date,Latitude,Longitude,X_East,Y_North,Z_Up,Amplitude_X,Amplitude_Y,Amplitude_Z,Batterie,SoundSpeed,Heading,Pitch,Roll,Pressure,TIS,Speed,Direction
, degrees North, degrees East, m.s-1, m.s-1,m.s-1, 1, 1, 1, Volt, m.s-1, degree, degree, degree, dbar, degree_C, m.s-1, degree
2019-09-11T00:09:04,42.805,6.029,-0.054,-0.012,-0.027,101.0,105.0,100.0,13.3,1505.2,324.3,-0.7,1.8,2470.181,13.29,0.055,257.5
2019-09-11T00:12:05,42.805,6.029,-0.033,0.004,0.007,103.0,107.0,100.0,13.3,1505.3,323.2,-0.8,1.8,2470.181,13.31,0.033,276.9
2019-09-11T00:15:06,42.805,6.029,-0.069,0.008,0.02,101.0,105.0,98.0,13.4,1505.3,323.4,-0.7,1.8,2470.14,13.31,0.069,276.6
2019-09-11T00:18:07,42.805,6.029,-0.044,0.004,-0.004,103.0,106.0,99.0,13.3,1505.3,325.0,-0.7,1.8,2470.157,13.32,0.044,275.2
2019-09-11T00:21:08,42.805,6.029,-0.04,0.0,0.015,102.0,106.0,99.0,13.4,1505.3,325.0,-0.7,1.8,2470.123,13.32,0.04,270.0
2019-09-11T00:24:09,42.805,6.029,-0.043,0.016,0.002,103.0,105.0,100.0,13.4,1505.3,325.6,-0.8,1.8,2470.081,13.32,0.045,290.4
2019-09-11T00:27:10,42.805,6.029,-0.021,-0.008,0.02,103.0,104.0,100.0,13.4,1505.3,325.7,-0.7,1.8,2470.133,13.33,0.022,249.1
2019-09-11T00:30:11,42.805,6.029,-0.049,0.001,-0.002,102.0,108.0,99.0,13.4,1505.3,326.3,-0.7,1.8,2470.119,13.33,0.049,271.2
2019-09-11T00:33:12,42.805,6.029,-0.057,-0.002,-0.004,103.0,107.0,99.0,13.3,1505.3,326.3,-0.8,1.8,2470.137,13.33,0.057,268.0
2019-09-11T00:36:13,42.805,6.029,-0.05,-0.008,-0.013,103.0,106.0,100.0,13.4,1505.3,325.6,-0.7,1.8,2470.111,13.33,0.05,260.9
2019-09-11T00:39:14,42.805,6.029,-0.055,0.003,0.009,102.0,108.0,100.0,13.3,1505.3,325.8,-0.7,1.8,2470.151,13.33,0.055,273.1
2019-09-11T00:42:15,42.805,6.029,-0.044,0.012,0.009,102.0,107.0,102.0,13.3,1505.3,325.0,-0.7,1.8,2470.126,13.33,0.045,285.3
2019-09-11T00:45:16,42.805,6.029,-0.06,-0.006,-0.016,102.0,106.0,101.0,13.3,1505.3,325.0,-0.7,1.8,2470.116,13.33,0.06,264.3
2019-09-11T00:48:17,42.805,6.029,-0.048,0.008,0.0,103.0,108.0,99.0,13.4,1505.3,325.3,-0.7,1.8,2470.085,13.33,0.048,279.5
2019-09-11T00:51:18,42.805,6.029,-0.06,0.002,-0.011,102.0,107.0,100.0,13.4,1505.3,323.8,-0.7,1.8,2470.09,13.33,0.06,271.9
2019-09-11T00:54:19,42.805,6.029,-0.051,0.03,0.006,103.0,107.0,99.0,13.4,1505.3,325.2,-0.7,1.9,2470.08,13.33,0.059,300.5
2019-09-11T00:57:20,42.805,6.029,-0.065,0.019,-0.021,103.0,106.0,99.0,13.4,1505.3,328.3,-0.7,1.8,2470.05,13.33,0.067,286.3
2019-09-11T01:00:21,42.805,6.029,-0.032,0.003,0.011,102.0,108.0,100.0,13.4,1505.3,326.5,-0.7,1.8,2470.074,13.33,0.032,275.4
2019-09-11T01:03:22,42.805,6.029,-0.05,0.011,-0.027,101.0,107.0,100.0,13.4,1505.3,324.9,-0.8,1.9,2470.128,13.33,0.051,282.4
2019-09-11T01:06:23,42.805,6.029,-0.031,0.015,0.02,102.0,107.0,99.0,13.4,1505.3,325.1,-0.7,1.8,2470.073,13.33,0.034,295.8
2019-09-11T01:09:24,42.805,6.029,-0.052,0.017,-0.021,102.0,107.0,99.0,13.3,1505.3,324.9,-0.7,1.8,2470.07,13.33,0.054,288.1
2019-09-11T01:12:25,42.805,6.029,-0.075,0.015,-0.043,102.0,108.0,99.0,13.4,1505.3,327.7,-0.7,1.8,2470.06,13.33,0.076,281.3
2019-09-11T01:15:26,42.805,6.029,-0.032,0.007,-0.004,101.0,108.0,99.0,13.4,1505.3,324.2,-0.7,1.8,2470.079,13.33,0.032,282.3
2019-09-11T01:18:27,42.805,6.029,-0.025,0.02,0.016,103.0,108.0,98.0,13.4,1505.3,327.2,-0.7,1.8,2470.097,13.33,0.032,308.7
2019-09-11T01:21:28,42.805,6.029,-0.049,0.012,-0.01,103.0,108.0,99.0,13.3,1505.3,326.3,-0.7,1.9,2470.105,13.33,0.05,283.8
2019-09-11T01:24:29,42.805,6.029,-0.043,0.02,0.0,101.0,107.0,100.0,13.3,1505.3,325.9,-0.7,1.8,2470.079,13.33,0.047,294.9
2019-09-11T01:27:30,42.805,6.029,-0.059,0.027,-0.008,103.0,108.0,98.0,13.4,1505.3,324.9,-0.7,1.8,2470.097,13.33,0.064,294.6
2019-09-11T01:30:31,42.805,6.029,-0.06,0.029,-0.008,102.0,107.0,99.0,13.3,1505.3,324.7,-0.7,1.8,2470.084,13.33,0.066,295.8
2019-09-11T01:33:32,42.805,6.029,-0.088,0.004,-0.017,102.0,106.0,100.0,13.3,1505.3,326.8,-0.7,1.8,2470.093,13.33,0.088,272.6
2019-09-11T01:36:33,42.805,6.029,-0.047,0.007,-0.009,103.0,106.0,99.0,13.4,1505.3,326.7,-0.7,1.8,2470.075,13.33,0.047,278.5
2019-09-11T01:39:34,42.805,6.029,-0.065,0.006,-0.02,102.0,107.0,100.0,13.3,1505.3,323.6,-0.7,1.9,2470.075,13.33,0.065,275.3
2019-09-11T01:42:35,42.805,6.029,-0.054,0.021,0.042,102.0,109.0,99.0,13.4,1505.3,327.1,-0.8,1.8,2470.118,13.33,0.057,291.2
2019-09-11T01:45:36,42.805,6.029,-0.055,0.009,-0.036,102.0,109.0,99.0,13.4,1505.3,328.1,-0.7,1.8,2470.082,13.33,0.055,279.3
2019-09-11T01:48:37,42.805,6.029,-0.09,0.029,-0.027,102.0,108.0,99.0,13.4,1505.3,325.7,-0.7,1.8,2470.062,13.33,0.094,287.9
2019-09-11T01:51:38,42.805,6.029,-0.027,0.008,0.048,101.0,106.0,99.0,13.4,1505.3,323.3,-0.7,1.8,2470.08,13.33,0.028,286.5
2019-09-11T01:54:39,42.805,6.029,-0.033,0.028,-0.002,103.0,105.0,100.0,13.4,1505.3,328.0,-0.7,1.9,2470.093,13.33,0.043,310.3
2019-09-11T01:57:40,42.805,6.029,-0.051,0.031,0.006,102.0,106.0,99.0,13.3,1505.3,326.6,-0.7,1.8,2470.121,13.33,0.059,301.3
2019-09-11T02:00:42,42.805,6.029,-0.04,0.036,0.016,102.0,108.0,97.0,13.4,1505.3,323.2,-0.7,1.8,2470.131,13.33,0.053,312.0
2019-09-11T02:03:42,42.805,6.029,-0.049,0.018,0.032,102.0,107.0,99.0,13.3,1505.3,322.9,-0.8,1.8,2470.125,13.33,0.052,290.2
2019-09-11T02:06:43,42.805,6.029,-0.04,0.005,-0.003,101.0,107.0,99.0,13.3,1505.3,324.0,-0.7,1.8,2470.067,13.33,0.04,277.1
2019-09-11T02:09:44,42.805,6.029,-0.049,0.006,0.008,102.0,106.0,99.0,13.4,1505.3,323.6,-0.7,1.9,2470.057,13.33,0.049,277.0
2019-09-11T02:12:45,42.805,6.029,-0.037,0.022,0.023,101.0,109.0,98.0,13.3,1505.3,323.2,-0.7,1.9,2470.135,13.33,0.043,300.7
2019-09-11T02:15:46,42.805,6.029,-0.052,0.021,-0.013,102.0,108.0,97.0,13.4,1505.3,325.4,-0.7,1.8,2470.178,13.33,0.056,292.0
2019-09-11T02:18:47,42.805,6.029,-0.046,0.007,0.017,100.0,107.0,98.0,13.4,1505.3,327.9,-0.7,1.8,2470.142,13.33,0.046,278.7
2019-09-11T02:21:48,42.805,6.029,-0.009,0.037,0.009,104.0,106.0,98.0,13.4,1505.3,326.8,-0.7,1.8,2470.095,13.33,0.038,346.3
2019-09-11T02:24:49,42.805,6.029,-0.067,0.017,0.025,101.0,107.0,97.0,13.4,1505.3,324.2,-0.7,1.8,2470.119,13.33,0.069,284.2
2019-09-11T02:27:50,42.805,6.029,-0.032,0.015,-0.002,101.0,108.0,98.0,13.4,1505.3,325.8,-0.7,1.8,2470.123,13.33,0.035,295.1
2019-09-11T02:30:51,42.805,6.029,-0.034,0.018,0.033,103.0,106.0,97.0,13.4,1505.3,326.8,-0.7,1.8,2470.093,13.33,0.038,297.9
2019-09-11T02:33:52,42.805,6.029,-0.064,0.005,-0.008,102.0,107.0,99.0,13.4,1505.3,325.4,-0.7,1.8,2470.064,13.33,0.064,274.5
2019-09-11T02:36:53,42.805,6.029,-0.03,0.023,0.004,101.0,107.0,99.0,13.4,1505.3,324.2,-0.7,1.9,2470.101,13.33,0.037,307.5
2019-09-11T02:39:54,42.805,6.029,-0.058,0.011,-0.004,102.0,108.0,98.0,13.3,1505.3,325.4,-0.7,1.9,2470.11,13.33,0.059,280.7
2019-09-11T02:42:55,42.805,6.029,-0.022,0.045,0.024,102.0,107.0,99.0,13.4,1505.3,326.5,-0.7,1.8,2470.101,13.33,0.05,333.9
2019-09-11T02:45:56,42.805,6.029,-0.066,0.028,-0.001,100.0,105.0,98.0,13.3,1505.3,327.6,-0.7,1.8,2470.101,13.33,0.071,293.0
2019-09-11T02:48:57,42.805,6.029,-0.068,0.018,0.01,101.0,108.0,98.0,13.4,1505.3,325.0,-0.7,1.8,2470.12,13.33,0.07,284.8
2019-09-11T02:51:58,42.805,6.029,-0.066,0.006,-0.003,102.0,108.0,98.0,13.4,1505.3,325.1,-0.7,1.8,2470.098,13.33,0.066,275.2
2019-09-11T02:54:59,42.805,6.029,-0.053,0.0,-0.008,101.0,107.0,98.0,13.4,1505.3,327.0,-0.7,1.8,2470.148,13.33,0.053,270.0
2019-09-11T02:58:00,42.805,6.029,-0.027,0.023,-0.003,102.0,108.0,99.0,13.4,1505.3,325.7,-0.7,1.8,2470.164,13.33,0.035,310.4
2019-09-11T03:01:01,42.805,6.029,-0.025,0.009,0.018,101.0,105.0,98.0,13.4,1505.3,326.3,-0.7,1.9,2470.107,13.33,0.026,289.8
2019-09-11T03:04:02,42.805,6.029,-0.066,0.018,0.013,102.0,107.0,99.0,13.4,1505.3,323.0,-0.7,1.8,2470.15,13.33,0.068,285.3
2019-09-11T03:07:03,42.805,6.029,-0.056,0.023,0.005,102.0,106.0,98.0,13.3,1505.3,325.5,-0.7,1.8,2470.091,13.33,0.06,292.3
2019-09-11T03:10:04,42.805,6.029,-0.048,0.001,0.034,104.0,106.0,99.0,13.4,1505.3,324.9,-0.7,1.8,2470.092,13.33,0.048,271.2
2019-09-11T03:13:05,42.805,6.029,-0.05,0.015,0.003,101.0,107.0,99.0,13.4,1505.3,325.6,-0.7,1.8,2470.148,13.33,0.052,286.7
2019-09-11T03:16:06,42.805,6.029,-0.06,0.005,-0.009,102.0,106.0,101.0,13.3,1505.3,323.3,-0.7,1.8,2470.116,13.33,0.06,274.8
2019-09-11T03:19:07,42.805,6.029,-0.047,0.013,0.001,102.0,107.0,99.0,13.4,1505.3,328.3,-0.7,1.8,2470.12,13.33,0.048,285.5
2019-09-11T03:22:08,42.805,6.029,-0.035,0.014,0.013,102.0,105.0,98.0,13.3,1505.3,328.1,-0.7,1.8,2470.135,13.33,0.037,291.8
2019-09-11T03:25:09,42.805,6.029,-0.038,0.022,0.013,101.0,106.0,98.0,13.4,1505.3,328.5,-0.7,1.8,2470.152,13.33,0.043,300.1
2019-09-11T03:28:10,42.805,6.029,-0.04,-0.001,0.003,102.0,108.0,98.0,13.3,1505.3,326.3,-0.7,1.8,2470.125,13.33,0.04,268.6
2019-09-11T03:31:11,42.805,6.029,-0.047,-0.001,0.005,101.0,107.0,97.0,13.3,1505.3,326.1,-0.7,1.8,2470.173,13.33,0.047,268.8
2019-09-11T03:34:12,42.805,6.029,-0.053,0.007,0.0,101.0,106.0,98.0,13.3,1505.3,327.1,-0.7,1.8,2470.132,13.33,0.053,277.5
2019-09-11T03:37:13,42.805,6.029,-0.039,0.003,0.033,103.0,107.0,99.0,13.3,1505.3,328.4,-0.7,1.9,2470.111,13.33,0.039,274.4
2019-09-11T03:40:14,42.805,6.029,-0.046,0.05,0.033,101.0,107.0,99.0,13.4,1505.3,326.7,-0.7,1.8,2470.139,13.33,0.067,317.4
2019-09-11T03:43:15,42.805,6.029,-0.081,0.011,0.011,102.0,107.0,98.0,13.3,1505.3,327.2,-0.7,1.8,2470.144,13.33,0.081,277.7
2019-09-11T03:46:16,42.805,6.029,-0.049,0.041,0.004,102.0,106.0,99.0,13.4,1505.3,325.0,-0.7,1.8,2470.14,13.33,0.063,309.9
2019-09-11T03:49:17,42.805,6.029,-0.011,0.02,0.035,102.0,107.0,99.0,13.4,1505.3,328.1,-0.7,1.8,2470.156,13.33,0.022,331.2
2019-09-11T03:52:18,42.805,6.029,-0.047,0.003,0.001,101.0,107.0,99.0,13.3,1505.3,328.1,-0.7,1.8,2470.16,13.33,0.047,273.6
2019-09-11T03:55:19,42.805,6.029,-0.025,0.015,0.015,103.0,106.0,99.0,13.4,1505.3,325.8,-0.7,1.8,2470.142,13.33,0.029,301.0
2019-09-11T03:58:20,42.805,6.029,-0.056,0.027,0.009,101.0,106.0,98.0,13.4,1505.3,327.4,-0.7,1.8,2470.167,13.33,0.062,295.7
2019-09-11T04:01:21,42.805,6.029,-0.042,0.02,0.008,100.0,108.0,98.0,13.3,1505.3,326.8,-0.7,1.8,2470.155,13.33,0.046,295.5
2019-09-11T04:04:22,42.805,6.029,-0.063,0.003,0.009,102.0,106.0,99.0,13.3,1505.3,326.5,-0.7,1.9,2470.158,13.33,0.063,272.7
2019-09-11T04:07:23,42.805,6.029,-0.067,0.009,-0.008,102.0,108.0,99.0,13.3,1505.3,327.1,-0.7,1.8,2470.185,13.33,0.067,277.7
2019-09-11T04:10:24,42.805,6.029,-0.063,0.026,0.014,103.0,107.0,97.0,13.3,1505.3,326.5,-0.7,1.9,2470.114,13.33,0.068,292.4
2019-09-11T04:13:25,42.805,6.029,-0.064,0.018,-0.003,100.0,108.0,98.0,13.4,1505.3,325.8,-0.7,1.8,2470.16,13.33,0.066,285.7
2019-09-11T04:16:26,42.805,6.029,-0.044,0.021,-0.005,102.0,107.0,99.0,13.4,1505.3,326.5,-0.7,1.9,2470.145,13.33,0.048,295.5
2019-09-11T04:19:27,42.805,6.029,-0.037,0.019,0.002,102.0,108.0,97.0,13.3,1505.3,323.9,-0.7,1.8,2470.184,13.33,0.041,297.2
2019-09-11T04:22:28,42.805,6.029,-0.068,0.036,0.011,102.0,109.0,98.0,13.3,1505.3,324.9,-0.7,1.9,2470.117,13.32,0.076,297.9
2019-09-11T04:25:29,42.805,6.029,-0.058,0.013,-0.027,101.0,108.0,100.0,13.4,1505.3,327.3,-0.7,1.8,2470.131,13.32,0.059,282.6
2019-09-11T04:28:30,42.805,6.029,-0.069,0.025,-0.007,101.0,107.0,99.0,13.4,1505.3,323.7,-0.7,1.8,2470.14,13.33,0.073,289.9
2019-09-11T04:31:31,42.805,6.029,-0.028,0.025,0.036,103.0,108.0,99.0,13.4,1505.3,324.1,-0.7,1.8,2470.166,13.33,0.037,311.8
2019-09-11T04:34:32,42.805,6.029,-0.065,0.033,0.0,101.0,107.0,99.0,13.4,1505.3,323.2,-0.7,1.9,2470.144,13.33,0.072,296.9
2019-09-11T04:37:33,42.805,6.029,-0.07,0.023,0.004,102.0,110.0,99.0,13.4,1505.3,325.1,-0.7,1.8,2470.183,13.33,0.073,288.2
2019-09-11T04:40:34,42.805,6.029,-0.05,0.021,0.008,101.0,107.0,98.0,13.4,1505.3,323.3,-0.7,1.8,2470.167,13.32,0.054,292.8
2019-09-11T04:43:35,42.805,6.029,-0.024,0.017,0.033,101.0,107.0,99.0,13.3,1505.3,327.1,-0.7,1.9,2470.196,13.32,0.029,305.3
2019-09-11T04:46:36,42.805,6.029,-0.038,0.008,0.032,101.0,107.0,99.0,13.3,1505.3,325.8,-0.7,1.8,2470.139,13.33,0.038,281.9
2019-09-11T04:49:37,42.805,6.029,-0.036,0.019,0.005,102.0,108.0,99.0,13.4,1505.3,327.8,-0.7,1.8,2470.162,13.33,0.04,297.8
2019-09-11T04:52:38,42.805,6.029,-0.031,0.036,0.039,102.0,106.0,99.0,13.3,1505.3,327.8,-0.7,1.9,2470.171,13.33,0.047,319.3
2019-09-11T04:55:39,42.805,6.029,-0.042,0.02,-0.004,102.0,108.0,98.0,13.4,1505.3,324.0,-0.7,1.9,2470.161,13.33,0.046,295.5
2019-09-11T04:58:40,42.805,6.029,-0.033,0.02,0.023,102.0,106.0,98.0,13.4,1505.3,327.9,-0.7,1.8,2470.191,13.33,0.038,301.2
2019-09-11T05:01:41,42.805,6.029,-0.038,0.003,-0.018,102.0,107.0,98.0,13.4,1505.3,324.5,-0.7,1.8,2470.153,13.33,0.038,274.5
2019-09-11T05:04:42,42.805,6.029,-0.033,0.004,0.019,101.0,107.0,98.0,13.4,1505.3,326.2,-0.7,1.9,2470.173,13.33,0.033,276.9
2019-09-11T05:07:43,42.805,6.029,-0.048,0.017,0.012,102.0,107.0,99.0,13.4,1505.3,327.3,-0.7,1.9,2470.207,13.33,0.05,289.5
2019-09-11T05:10:44,42.805,6.029,-0.032,0.018,0.041,101.0,108.0,98.0,13.3,1505.3,327.1,-0.7,1.8,2470.162,13.33,0.036,299.4
2019-09-11T05:13:45,42.805,6.029,-0.068,0.021,-0.039,102.0,107.0,98.0,13.3,1505.3,327.3,-0.7,1.8,2470.156,13.33,0.071,287.2
2019-09-11T05:16:46,42.805,6.029,-0.057,0.011,0.001,100.0,108.0,98.0,13.3,1505.3,326.1,-0.7,1.8,2470.16,13.33,0.058,280.9
2019-09-11T05:19:47,42.805,6.029,-0.074,0.015,-0.001,101.0,106.0,99.0,13.4,1505.3,326.1,-0.7,1.8,2470.199,13.33,0.075,281.5
2019-09-11T05:22:48,42.805,6.029,-0.049,-0.005,0.0,102.0,106.0,98.0,13.3,1505.3,328.1,-0.7,1.8,2470.162,13.33,0.049,264.2
2019-09-11T05:25:49,42.805,6.029,-0.037,0.029,0.013,101.0,108.0,98.0,13.4,1505.3,327.5,-0.7,1.8,2470.181,13.33,0.047,308.1
2019-09-11T05:28:50,42.805,6.029,-0.048,0.024,0.0,102.0,107.0,98.0,13.4,1505.3,326.4,-0.7,1.8,2470.193,13.33,0.053,296.6
2019-09-11T05:31:51,42.805,6.029,-0.068,-0.003,-0.012,101.0,107.0,98.0,13.3,1505.3,325.3,-0.7,1.8,2470.181,13.33,0.068,267.5
2019-09-11T05:34:52,42.805,6.029,-0.05,0.013,-0.036,101.0,106.0,99.0,13.3,1505.3,324.5,-0.7,1.8,2470.153,13.33,0.051,284.6
2019-09-11T05:37:53,42.805,6.029,-0.064,0.027,0.021,100.0,106.0,98.0,13.4,1505.3,325.1,-0.7,1.8,2470.178,13.33,0.069,292.9
2019-09-11T05:40:55,42.805,6.029,-0.037,0.02,0.032,100.0,107.0,98.0,13.4,1505.3,327.2,-0.7,1.8,2470.187,13.33,0.042,298.4
2019-09-11T05:43:55,42.805,6.029,-0.047,-0.004,0.023,102.0,106.0,98.0,13.4,1505.3,323.5,-0.7,1.8,2470.213,13.33,0.047,265.1
2019-09-11T05:46:56,42.805,6.029,-0.016,0.021,0.027,101.0,107.0,98.0,13.4,1505.3,327.5,-0.7,1.8,2470.177,13.33,0.026,322.7
2019-09-11T05:49:57,42.805,6.029,-0.039,0.022,0.035,102.0,106.0,98.0,13.3,1505.3,325.1,-0.7,1.8,2470.166,13.33,0.044,299.4
2019-09-11T05:52:58,42.805,6.029,-0.046,0.009,-0.007,101.0,106.0,98.0,13.4,1505.3,326.7,-0.7,1.8,2470.17,13.33,0.046,281.1
2019-09-11T05:55:59,42.805,6.029,-0.071,0.033,0.004,102.0,106.0,98.0,13.4,1505.3,325.8,-0.7,1.8,2470.194,13.33,0.078,294.9
2019-09-11T05:59:00,42.805,6.029,-0.056,0.006,0.011,100.0,106.0,98.0,13.3,1505.3,325.5,-0.7,1.8,2470.158,13.33,0.056,276.1
2019-09-11T06:02:01,42.805,6.029,-0.058,0.03,0.019,101.0,106.0,99.0,13.4,1505.3,326.7,-0.7,1.8,2470.192,13.33,0.065,297.4
2019-09-11T06:05:02,42.805,6.029,-0.043,0.011,0.009,102.0,106.0,98.0,13.4,1505.3,328.6,-0.7,1.8,2470.147,13.33,0.044,284.3
2019-09-11T06:08:03,42.805,6.029,-0.062,0.023,-0.009,101.0,106.0,98.0,13.3,1505.3,326.7,-0.7,1.8,2470.191,13.33,0.066,290.3
2019-09-11T06:11:04,42.805,6.029,-0.091,0.021,-0.041,99.0,106.0,98.0,13.4,1505.3,328.1,-0.7,1.8,2470.144,13.33,0.093,283.0
2019-09-11T06:14:05,42.805,6.029,-0.055,0.014,-0.015,100.0,107.0,98.0,13.4,1505.3,326.9,-0.7,1.8,2470.223,13.33,0.056,284.3
2019-09-11T06:17:06,42.805,6.029,-0.049,0.007,-0.016,101.0,107.0,97.0,13.3,1505.3,325.8,-0.7,1.8,2470.152,13.33,0.049,278.1
2019-09-11T06:20:07,42.805,6.029,-0.046,0.009,0.011,99.0,107.0,98.0,13.4,1505.3,326.8,-0.7,1.9,2470.227,13.33,0.046,281.1
2019-09-11T06:23:08,42.805,6.029,-0.046,0.01,0.003,101.0,108.0,97.0,13.4,1505.3,324.6,-0.7,1.8,2470.163,13.33,0.047,282.3
2019-09-11T06:26:09,42.805,6.029,-0.053,0.012,0.044,101.0,108.0,99.0,13.3,1505.3,324.0,-0.7,1.9,2470.179,13.33,0.054,282.8
2019-09-11T06:29:10,42.805,6.029,-0.033,0.012,0.024,101.0,107.0,98.0,13.3,1505.3,323.3,-0.7,1.8,2470.175,13.33,0.035,290.0
2019-09-11T06:32:11,42.805,6.029,-0.046,0.011,-0.001,101.0,106.0,98.0,13.4,1505.3,328.3,-0.7,1.8,2470.164,13.33,0.047,283.4
2019-09-11T06:35:12,42.805,6.029,-0.054,0.013,-0.002,103.0,106.0,98.0,13.3,1505.3,328.5,-0.7,1.8,2470.131,13.33,0.055,283.5
2019-09-11T06:38:13,42.805,6.029,-0.033,0.0,0.031,101.0,107.0,98.0,13.4,1505.3,326.4,-0.7,1.8,2470.238,13.33,0.033,270.0
2019-09-11T06:41:14,42.805,6.029,-0.035,0.012,0.015,100.0,106.0,98.0,13.3,1505.3,326.9,-0.7,1.8,2470.164,13.33,0.037,288.9
2019-09-11T06:44:15,42.805,6.029,-0.051,0.005,0.006,101.0,105.0,100.0,13.4,1505.3,327.9,-0.7,1.8,2470.173,13.33,0.051,275.6
2019-09-11T06:47:16,42.805,6.029,-0.07,0.017,-0.028,100.0,105.0,97.0,13.3,1505.3,328.4,-0.7,1.8,2470.113,13.33,0.072,283.7
2019-09-11T06:50:17,42.805,6.029,-0.031,0.018,-0.012,102.0,106.0,98.0,13.4,1505.3,325.2,-0.7,1.8,2470.16,13.33,0.035,300.1
2019-09-11T06:53:18,42.805,6.029,-0.058,-0.003,-0.038,101.0,106.0,98.0,13.4,1505.3,325.5,-0.7,1.8,2470.173,13.33,0.058,267.0
2019-09-11T06:56:19,42.805,6.029,-0.02,0.022,0.014,101.0,106.0,99.0,13.4,1505.3,324.4,-0.7,1.8,2470.17,13.33,0.029,317.7
2019-09-11T06:59:20,42.805,6.029,-0.07,0.015,0.019,101.0,106.0,98.0,13.4,1505.3,325.8,-0.7,1.9,2470.178,13.33,0.071,282.1
2019-09-11T07:02:21,42.805,6.029,-0.052,0.018,-0.006,100.0,107.0,99.0,13.4,1505.3,324.4,-0.7,1.8,2470.18,13.33,0.055,289.1
2019-09-11T07:05:22,42.805,6.029,-0.025,0.01,0.002,100.0,105.0,98.0,13.4,1505.3,327.5,-0.7,1.8,2470.152,13.33,0.026,291.8
2019-09-11T07:08:23,42.805,6.029,-0.031,0.005,0.028,101.0,105.0,97.0,13.4,1505.3,324.6,-0.7,1.8,2470.174,13.33,0.031,279.2
2019-09-11T07:11:24,42.805,6.029,-0.051,0.009,-0.022,101.0,107.0,98.0,13.3,1505.3,323.4,-0.7,1.9,2470.148,13.33,0.051,280.0
2019-09-11T07:14:25,42.805,6.029,-0.036,0.006,0.003,100.0,106.0,97.0,13.4,1505.3,326.3,-0.7,1.8,2470.173,13.33,0.036,279.5
2019-09-11T07:17:26,42.805,6.029,-0.045,0.0,0.028,101.0,105.0,98.0,13.3,1505.3,326.5,-0.7,1.8,2470.157,13.33,0.045,270.0
2019-09-11T07:20:27,42.805,6.029,-0.044,-0.005,-0.005,100.0,106.0,98.0,13.3,1505.3,327.6,-0.7,1.8,2470.165,13.33,0.044,263.5
2019-09-11T07:23:28,42.805,6.029,-0.027,0.016,0.006,99.0,106.0,98.0,13.4,1505.3,326.5,-0.7,1.8,2470.171,13.33,0.031,300.7
2019-09-11T07:26:29,42.805,6.029,-0.053,0.032,0.012,100.0,105.0,97.0,13.3,1505.3,327.6,-0.7,1.8,2470.159,13.33,0.061,301.1
2019-09-11T07:29:30,42.805,6.029,-0.024,0.005,-0.027,101.0,105.0,97.0,13.3,1505.3,326.3,-0.7,1.8,2470.162,13.33,0.024,281.8
2019-09-11T07:32:31,42.805,6.029,-0.041,-0.011,-0.002,99.0,105.0,98.0,13.3,1505.3,324.0,-0.7,1.8,2470.15,13.33,0.042,255.0
2019-09-11T07:35:32,42.805,6.029,-0.054,0.021,0.017,99.0,107.0,98.0,13.4,1505.3,327.7,-0.7,1.8,2470.193,13.33,0.057,291.2
2019-09-11T07:38:33,42.805,6.029,-0.055,0.013,0.011,99.0,106.0,98.0,13.4,1505.3,322.8,-0.7,1.9,2470.202,13.33,0.056,283.3
2019-09-11T07:41:34,42.805,6.029,-0.03,0.003,-0.013,100.0,106.0,97.0,13.4,1505.3,328.3,-0.7,1.8,2470.173,13.33,0.03,275.7
2019-09-11T07:44:35,42.805,6.029,-0.045,0.0,-0.002,101.0,105.0,98.0,13.3,1505.3,327.7,-0.7,1.8,2470.184,13.33,0.045,270.0
2019-09-11T07:47:36,42.805,6.029,-0.065,-0.013,-0.029,99.0,105.0,98.0,13.4,1505.3,324.7,-0.7,1.8,2470.154,13.33,0.066,258.7
2019-09-11T07:50:37,42.805,6.029,-0.037,-0.009,0.013,99.0,105.0,98.0,13.3,1505.3,324.5,-0.7,1.8,2470.161,13.33,0.038,256.3
2019-09-11T07:53:38,42.805,6.029,-0.047,0.0,-0.031,101.0,105.0,98.0,13.4,1505.3,325.3,-0.7,1.8,2470.148,13.33,0.047,270.0
2019-09-11T07:56:39,42.805,6.029,-0.069,0.009,-0.032,101.0,104.0,96.0,13.3,1505.3,324.9,-0.7,1.8,2470.128,13.33,0.069,277.4
2019-09-11T07:59:40,42.805,6.029,-0.046,0.017,0.005,99.0,105.0,98.0,13.4,1505.3,325.6,-0.7,1.9,2470.152,13.33,0.049,290.3
2019-09-11T08:02:41,42.805,6.029,-0.042,0.007,0.005,100.0,105.0,97.0,13.4,1505.3,325.1,-0.7,1.8,2470.181,13.33,0.042,279.5
2019-09-11T08:05:42,42.805,6.029,-0.024,0.006,0.006,100.0,105.0,97.0,13.4,1505.3,326.7,-0.7,1.8,2470.162,13.33,0.024,284.0
2019-09-11T08:08:43,42.805,6.029,-0.043,0.015,0.016,100.0,105.0,97.0,13.4,1505.3,323.5,-0.7,1.8,2470.139,13.33,0.045,289.2
2019-09-11T08:11:44,42.805,6.029,-0.054,0.024,0.0,101.0,105.0,98.0,13.3,1505.3,323.5,-0.7,1.8,2470.15,13.33,0.059,294.0
2019-09-11T08:14:45,42.805,6.029,-0.046,0.007,-0.011,99.0,105.0,97.0,13.3,1505.3,328.0,-0.7,1.8,2470.152,13.33,0.046,278.7
2019-09-11T08:17:46,42.805,6.029,-0.049,0.008,-0.015,100.0,104.0,97.0,13.4,1505.3,324.5,-0.7,1.8,2470.162,13.33,0.049,279.3
2019-09-11T08:20:47,42.805,6.029,-0.061,0.004,0.004,99.0,104.0,98.0,13.4,1505.3,326.2,-0.7,1.9,2470.156,13.33,0.061,273.7
2019-09-11T08:23:48,42.805,6.029,-0.049,0.036,0.013,99.0,105.0,99.0,13.4,1505.3,324.4,-0.7,1.8,2470.107,13.33,0.06,306.3
2019-09-11T08:26:49,42.805,6.029,-0.054,0.001,-0.032,101.0,105.0,97.0,13.4,1505.3,328.0,-0.7,1.8,2470.125,13.33,0.054,271.1
2019-09-11T08:29:50,42.805,6.029,-0.026,0.004,0.022,102.0,105.0,98.0,13.3,1505.3,324.0,-0.7,1.8,2470.118,13.33,0.026,278.7
2019-09-11T08:32:51,42.805,6.029,-0.04,0.002,-0.01,100.0,104.0,98.0,13.4,1505.3,323.9,-0.7,1.8,2470.159,13.33,0.04,272.9
2019-09-11T08:35:52,42.805,6.029,-0.053,0.026,0.027,101.0,105.0,98.0,13.3,1505.3,325.9,-0.7,1.8,2470.144,13.33,0.059,296.1
2019-09-11T08:38:53,42.805,6.029,-0.072,-0.004,-0.037,101.0,104.0,98.0,13.4,1505.3,327.8,-0.7,1.8,2470.083,13.33,0.072,266.8
2019-09-11T08:41:54,42.805,6.029,-0.051,0.013,0.012,101.0,104.0,96.0,13.3,1505.3,326.2,-0.7,1.8,2470.157,13.33,0.052,284.3
2019-09-11T08:44:55,42.805,6.029,-0.054,-0.012,0.006,100.0,103.0,99.0,13.4,1505.3,327.4,-0.7,1.8,2470.115,13.33,0.055,257.5
2019-09-11T08:47:56,42.805,6.029,-0.059,0.012,0.001,101.0,105.0,98.0,13.4,1505.3,325.6,-0.8,1.9,2470.167,13.33,0.06,281.5
2019-09-11T08:50:57,42.805,6.029,-0.015,0.0,0.031,100.0,105.0,98.0,13.4,1505.3,324.7,-0.7,1.9,2470.138,13.33,0.015,270.0
2019-09-11T08:53:58,42.805,6.029,-0.039,0.018,0.03,100.0,105.0,97.0,13.3,1505.3,328.2,-0.7,1.8,2470.122,13.33,0.042,294.8
2019-09-11T08:56:59,42.805,6.029,-0.042,0.014,0.005,99.0,105.0,98.0,13.3,1505.3,325.1,-0.7,1.9,2470.104,13.33,0.044,288.4
2019-09-11T09:00:00,42.805,6.029,-0.03,-0.008,0.002,99.0,105.0,97.0,13.4,1505.3,326.4,-0.7,1.8,2470.124,13.33,0.031,255.1
2019-09-11T09:03:01,42.805,6.029,-0.047,0.011,-0.004,99.0,104.0,98.0,13.4,1505.3,327.5,-0.7,1.8,2470.16,13.33,0.048,283.2
2019-09-11T09:06:02,42.805,6.029,-0.046,0.004,-0.01,99.0,104.0,98.0,13.3,1505.3,327.2,-0.7,1.8,2470.14,13.33,0.046,275.0
2019-09-11T09:09:03,42.805,6.029,-0.029,0.018,0.015,99.0,104.0,98.0,13.4,1505.3,328.1,-0.7,1.8,2470.176,13.33,0.034,301.8
2019-09-11T09:12:04,42.805,6.029,-0.051,0.014,-0.024,100.0,104.0,97.0,13.4,1505.3,327.8,-0.7,1.8,2470.133,13.33,0.052,285.3
2019-09-11T09:15:05,42.805,6.029,-0.052,-0.003,0.015,100.0,103.0,97.0,13.3,1505.3,328.2,-0.7,1.9,2470.118,13.33,0.052,266.7
2019-09-11T09:18:06,42.805,6.029,-0.047,0.015,-0.011,100.0,104.0,97.0,13.4,1505.3,327.6,-0.7,1.8,2470.101,13.33,0.049,287.7
2019-09-11T09:21:07,42.805,6.029,-0.059,0.02,0.004,99.0,105.0,98.0,13.3,1505.3,328.1,-0.7,1.8,2470.145,13.33,0.062,288.7
2019-09-11T09:24:08,42.805,6.029,-0.066,0.008,-0.031,100.0,105.0,98.0,13.4,1505.3,328.4,-0.7,1.8,2470.149,13.33,0.066,276.9
2019-09-11T09:27:09,42.805,6.029,-0.025,0.012,0.01,101.0,105.0,96.0,13.4,1505.3,327.5,-0.7,1.8,2470.107,13.33,0.027,295.6
2019-09-11T09:30:10,42.805,6.029,-0.06,-0.004,0.0,101.0,104.0,98.0,13.4,1505.3,327.7,-0.7,1.8,2470.159,13.33,0.06,266.2
2019-09-11T09:33:11,42.805,6.029,-0.029,0.0,0.018,100.0,104.0,97.0,13.3,1505.3,327.6,-0.7,1.8,2470.115,13.33,0.028,270.0
2019-09-11T09:36:12,42.805,6.029,-0.054,0.01,0.027,99.0,103.0,98.0,13.3,1505.3,324.5,-0.7,1.8,2470.119,13.33,0.054,280.5
2019-09-11T09:39:13,42.805,6.029,-0.042,0.003,0.015,100.0,103.0,98.0,13.4,1505.3,323.9,-0.7,1.8,2470.085,13.33,0.042,274.1
2019-09-11T09:42:14,42.805,6.029,-0.029,-0.006,-0.007,99.0,106.0,97.0,13.4,1505.3,322.8,-0.7,1.8,2470.162,13.33,0.029,258.3